| time (UTC) | temp F | wind direction | speed MPH | gust MPH | rain 1hr in | rain 24hr in | rain mn in | humidity % | barometer mb |
| 20260905043054 | 58 | 323 | 4.0 | 9.0 | 0.00 | 0.00 | 0.00 | 58 | 1018.1 |
| 20260905041543 | 60 | 320 | 7.0 | 10.0 | 0.00 | 0.00 | 0.00 | 51 | 1017.8 |
| 20260905040049 | 59 | 331 | 7.0 | 11.0 | 0.00 | 0.00 | 0.00 | 51 | 1017.6 |
| 20260905034554 | 59 | 329 | 5.0 | 10.0 | 0.00 | 0.00 | 0.00 | 52 | 1017.5 |
| 20260905033109 | 60 | 339 | 8.0 | 11.0 | 0.00 | 0.00 | 0.00 | 52 | 1017.0 |
| 20260905031602 | 60 | 342 | 6.0 | 9.0 | 0.00 | 0.00 | 0.00 | 52 | 1016.8 |
| 20260905030056 | 61 | 346 | 6.0 | 10.0 | 0.00 | 0.00 | 0.00 | 51 | 1016.5 |
| 20260905024543 | 62 | 331 | 5.0 | 11.0 | 0.00 | 0.00 | 0.00 | 50 | 1016.6 |
| 20260905023053 | 63 | 355 | 8.0 | 11.0 | 0.00 | 0.00 | 0.00 | 49 | 1015.8 |
| 20260905021552 | 63 | 5 | 6.0 | 11.0 | 0.00 | 0.00 | 0.00 | 47 | 1016.0 |
| 20260905020048 | 64 | 15 | 6.0 | 11.0 | 0.00 | 0.00 | 0.00 | 47 | 1015.7 |
| 20260905014542 | 64 | 18 | 8.0 | 12.0 | 0.00 | 0.00 | 0.00 | 46 | 1015.1 |
| 20260905013046 | 64 | 28 | 7.0 | 13.0 | 0.00 | 0.00 | 0.00 | 45 | 1014.9 |
| 20260905011547 | 65 | 15 | 7.0 | 12.0 | 0.00 | 0.00 | 0.00 | 44 | 1014.6 |
| 20260905010057 | 67 | 32 | 8.0 | 12.0 | 0.00 | 0.00 | 0.00 | 42 | 1014.8 |
| 20260905004542 | 68 | 5 | 7.0 | 14.0 | 0.00 | 0.00 | 0.00 | 41 | 1014.8 |
| 20260905003052 | 69 | 12 | 10.0 | 15.0 | 0.00 | 0.00 | 0.00 | 40 | 1014.7 |
| 20260905001553 | 69 | 28 | 8.0 | 17.0 | 0.00 | 0.00 | 0.00 | 39 | 1014.7 |
| 20260905000055 | 70 | 37 | 11.0 | 16.0 | 0.00 | 0.00 | 0.00 | 40 | 1014.4 |
| 20260904234544 | 70 | 355 | 9.0 | 14.0 | 0.00 | 0.00 | 0.00 | 39 | 1014.3 |
| 20260904233051 | 70 | 9 | 8.0 | 15.0 | 0.00 | 0.00 | 0.00 | 38 | 1014.2 |
| 20260904231548 | 71 | 290 | 11.0 | 17.0 | 0.00 | 0.00 | 0.00 | 38 | 1014.1 |
| 20260904230106 | 70 | 307 | 9.0 | 14.0 | 0.00 | 0.00 | 0.00 | 38 | 1014.2 |
| 20260904224544 | 70 | 335 | 11.0 | 19.0 | 0.00 | 0.00 | 0.00 | 39 | 1014.1 |
| 20260904223045 | 70 | 343 | 14.0 | 19.0 | 0.00 | 0.00 | 0.00 | 39 | 1014.1 |
| 20260904221545 | 70 | 311 | 13.0 | 19.0 | 0.00 | 0.00 | 0.00 | 39 | 1013.8 |
| 20260904220052 | 70 | 355 | 11.0 | 18.0 | 0.00 | 0.00 | 0.00 | 40 | 1013.7 |
| 20260904214548 | 69 | 342 | 10.0 | 18.0 | 0.00 | 0.00 | 0.00 | 40 | 1013.6 |
| 20260904213049 | 69 | 340 | 12.0 | 19.0 | 0.00 | 0.00 | 0.00 | 40 | 1013.4 |
| 20260904211547 | 69 | 313 | 14.0 | 21.0 | 0.00 | 0.00 | 0.00 | 41 | 1013.4 |
| 20260904210045 | 69 | 325 | 13.0 | 18.0 | 0.00 | 0.00 | 0.00 | 40 | 1013.3 |
| 20260904204550 | 69 | 324 | 14.0 | 21.0 | 0.00 | 0.00 | 0.00 | 40 | 1012.9 |
| 20260904203049 | 69 | 325 | 12.0 | 20.0 | 0.00 | 0.00 | 0.00 | 38 | 1012.8 |
| 20260904201607 | 69 | 341 | 15.0 | 22.0 | 0.00 | 0.00 | 0.00 | 39 | 1012.5 |
| 20260904200058 | 68 | 352 | 14.0 | 22.0 | 0.00 | 0.00 | 0.00 | 39 | 1012.4 |
| 20260904194551 | 66 | 320 | 11.0 | 20.0 | 0.00 | 0.00 | 0.00 | 41 | 1012.5 |
| 20260904193047 | 66 | 329 | 12.0 | 22.0 | 0.00 | 0.00 | 0.00 | 42 | 1012.3 |
| 20260904191544 | 66 | 320 | 12.0 | 17.0 | 0.00 | 0.00 | 0.00 | 42 | 1012.3 |
| 20260904190054 | 65 | 318 | 11.0 | 17.0 | 0.00 | 0.00 | 0.00 | 42 | 1012.3 |
| 20260904184541 | 64 | 9 | 10.0 | 16.0 | 0.00 | 0.00 | 0.00 | 44 | 1012.0 |
| 20260904183105 | 62 | 335 | 9.0 | 16.0 | 0.00 | 0.00 | 0.00 | 45 | 1012.1 |
| 20260904181544 | 62 | 34 | 10.0 | 15.0 | 0.00 | 0.00 | 0.00 | 46 | 1011.8 |
| 20260904180044 | 60 | 22 | 9.0 | 16.0 | 0.00 | 0.00 | 0.00 | 48 | 1012.0 |
| 20260904174553 | 59 | 10 | 11.0 | 17.0 | 0.00 | 0.00 | 0.00 | 50 | 1011.4 |
| 20260904173055 | 59 | 11 | 11.0 | 16.0 | 0.00 | 0.00 | 0.00 | 51 | 1011.6 |
| 20260904171606 | 58 | 349 | 9.0 | 16.0 | 0.00 | 0.00 | 0.00 | 52 | 1011.4 |
| 20260904170043 | 58 | 337 | 11.0 | 15.0 | 0.00 | 0.00 | 0.00 | 53 | 1011.1 |
| 20260904164600 | 57 | 344 | 11.0 | 16.0 | 0.00 | 0.00 | 0.00 | 54 | 1010.9 |
| 20260904163048 | 57 | 17 | 10.0 | 15.0 | 0.00 | 0.00 | 0.00 | 53 | 1010.6 |
| 20260904161549 | 57 | 5 | 9.0 | 16.0 | 0.00 | 0.00 | 0.00 | 54 | 1010.7 |
| 20260904160043 | 56 | 360 | 10.0 | 16.0 | 0.00 | 0.00 | 0.00 | 55 | 1010.6 |
| 20260904154550 | 55 | 14 | 11.0 | 17.0 | 0.00 | 0.00 | 0.00 | 56 | 1010.4 |
| 20260904153103 | 55 | 329 | 12.0 | 17.0 | 0.00 | 0.00 | 0.00 | 57 | 1010.2 |
| 20260904151546 | 54 | 347 | 11.0 | 14.0 | 0.00 | 0.00 | 0.00 | 58 | 1010.1 |
| 20260904150045 | 53 | 340 | 10.0 | 15.0 | 0.00 | 0.00 | 0.00 | 59 | 1009.6 |
| 20260904144547 | 51 | 5 | 10.0 | 13.0 | 0.00 | 0.00 | 0.00 | 62 | 1009.4 |
| 20260904143042 | 49 | 23 | 5.0 | 10.0 | 0.00 | 0.00 | 0.00 | 67 | 1009.0 |
| 20260904141550 | 48 | 27 | 4.0 | 8.0 | 0.00 | 0.00 | 0.00 | 68 | 1009.0 |
| 20260904140049 | 48 | 35 | 6.0 | 10.0 | 0.00 | 0.00 | 0.00 | 68 | 1009.0 |
| 20260904134556 | 47 | 39 | 3.0 | 9.0 | 0.00 | 0.00 | 0.00 | 70 | 1008.9 |
| 20260904133049 | 47 | 35 | 5.0 | 10.0 | 0.00 | 0.00 | 0.00 | 69 | 1008.4 |
| 20260904131602 | 46 | 27 | 6.0 | 10.0 | 0.00 | 0.00 | 0.00 | 69 | 1008.6 |
| 20260904130052 | 45 | 24 | 5.0 | 9.0 | 0.00 | 0.00 | 0.00 | 72 | 1008.6 |
| 20260904124542 | 45 | 34 | 3.0 | 8.0 | 0.00 | 0.01 | 0.00 | 72 | 1008.6 |
| 20260904123046 | 44 | 30 | 4.0 | 9.0 | 0.00 | 0.01 | 0.00 | 73 | 1008.6 |
| 20260904121541 | 44 | 34 | 4.0 | 9.0 | 0.00 | 0.01 | 0.00 | 73 | 1008.5 |
| 20260904120048 | 45 | 37 | 4.0 | 8.0 | 0.00 | 0.01 | 0.00 | 73 | 1008.3 |
| 20260904114543 | 45 | 34 | 4.0 | 9.0 | 0.00 | 0.01 | 0.00 | 72 | 1008.4 |
| 20260904113046 | 45 | 53 | 4.0 | 8.0 | 0.00 | 0.01 | 0.00 | 73 | 1008.6 |
| 20260904111543 | 45 | 52 | 4.0 | 8.0 | 0.00 | 0.01 | 0.00 | 73 | 1008.5 |
| 20260904110050 | 46 | 36 | 4.0 | 7.0 | 0.00 | 0.01 | 0.00 | 71 | 1008.7 |
| 20260904104543 | 47 | 46 | 4.0 | 8.0 | 0.00 | 0.01 | 0.00 | 70 | 1008.8 |
| 20260904103052 | 47 | 34 | 4.0 | 9.0 | 0.00 | 0.01 | 0.00 | 70 | 1008.8 |
| 20260904101551 | 47 | 42 | 3.0 | 8.0 | 0.00 | 0.01 | 0.00 | 69 | 1009.0 |
| 20260904100051 | 46 | 39 | 4.0 | 6.0 | 0.00 | 0.01 | 0.00 | 71 | 1009.2 |
| 20260904094558 | 47 | 51 | 3.0 | 6.0 | 0.00 | 0.01 | 0.00 | 69 | 1009.4 |
| 20260904093041 | 48 | 36 | 3.0 | 5.0 | 0.00 | 0.01 | 0.00 | 68 | 1009.5 |
| 20260904091604 | 48 | 26 | 3.0 | 5.0 | 0.00 | 0.01 | 0.00 | 67 | 1009.4 |
| 20260904090053 | 48 | 30 | 2.0 | 4.0 | 0.00 | 0.01 | 0.00 | 67 | 1009.4 |
| 20260904084543 | 49 | 17 | 3.0 | 5.0 | 0.00 | 0.01 | 0.00 | 67 | 1009.4 |
| 20260904083050 | 49 | 21 | 3.0 | 6.0 | 0.00 | 0.01 | 0.00 | 66 | 1009.4 |
| 20260904081546 | 49 | 29 | 4.0 | 5.0 | 0.00 | 0.01 | 0.00 | 66 | 1009.4 |
| 20260904080042 | 51 | 32 | 4.0 | 6.0 | 0.00 | 0.01 | 0.00 | 64 | 1009.4 |
| 20260904074550 | 53 | 40 | 3.0 | 5.0 | 0.00 | 0.01 | 0.00 | 61 | 1009.7 |
| 20260904073056 | 53 | 42 | 3.0 | 6.0 | 0.00 | 0.01 | 0.00 | 61 | 1010.0 |
| 20260904071546 | 53 | 57 | 3.0 | 5.0 | 0.00 | 0.01 | 0.00 | 61 | 1010.1 |
| 20260904070045 | 53 | 53 | 3.0 | 6.0 | 0.00 | 0.01 | 0.00 | 61 | 1010.4 |
| 20260904064548 | 52 | 72 | 3.0 | 5.0 | 0.00 | 0.01 | 0.00 | 63 | 1010.4 |
| 20260904063057 | 53 | 72 | 3.0 | 5.0 | 0.00 | 0.01 | 0.00 | 62 | 1010.6 |
| 20260904061553 | 54 | 69 | 3.0 | 4.0 | 0.00 | 0.01 | 0.00 | 60 | 1010.4 |
| 20260904060057 | 55 | 69 | 2.0 | 3.0 | 0.00 | 0.01 | 0.00 | 59 | 1010.3 |
| 20260904054616 | 55 | 0 | 0.0 | 0.0 | 0.00 | 0.02 | 0.01 | 58 | 1010.2 |
| 20260904053047 | 54 | 0 | 0.0 | 1.0 | 0.00 | 0.02 | 0.01 | 61 | 1010.6 |
| 20260904051543 | 54 | 0 | 0.0 | 2.0 | 0.00 | 0.02 | 0.01 | 60 | 1010.8 |
| 20260904050054 | 54 | 0 | 0.0 | 2.0 | 0.00 | 0.02 | 0.01 | 59 | 1010.9 |
| 20260904044550 | 55 | 69 | 0.0 | 3.0 | 0.00 | 0.08 | 0.01 | 59 | 1010.9 |